User: anonymous   Login
Location: Unspecified
(0.0000°N, 0.0000°E)
Time: 07:23:00
(UTC+00:00)
Language:

OPTUS D1 - Orbit

View from above orbital plane
View from above orbital plane
View from above satellite
View from above satellite

Ground track
Ground track

The orbit data is extracted from the following two-line orbital elements,

1 29495U 06043B   18323.86090479 -.00000099 +00000-0 +00000-0 0  9991
2 29495 000.0258 100.5531 0003727 133.7513 294.4896 01.00272239044380
Epoch (UTC): 19 November 2018 20:39:42
Eccentricity: 0.0003727
inclination: 0.0258°
perigee height: 35770 km
apogee height: 35802 km
right ascension of ascending node: 100.5531°
argument of perigee: 133.7513°
revolutions per day: 1.00272239
mean anomaly at epoch: 294.4896°
orbit number at epoch: 4438

The dashed part of the orbit path shows where the satellite is in the earth's shadow,  

DLR